DECAYED

STARLINK-30194, 57308 (Decayed)

Orbit data source: Space-Track

STARLINK-30194, 57308 was a payload satellite owned by SpaceX/Seattle (US) in LEO that was launched on Mon, 10 Jul 2023 UTC via an FALCON 9 launch vehicle from the Air Force Eastern Test Range (AFETR). Payload-class satellites include a variety of spacecraft equipped with specific instruments for various scientific and technological missions. These include communications satellites like Starlink; space stations such as the ISS; scientific satellites like the Hubble; Earth observation satellites from companies like Planet Labs, Umbra, and HawkEye 360; GPS; miniature CubeSats for education and research; and military/defense satellites.

Not visible in the next 10 days
Identifier
57308, 2023-096U
Orbit
Decayed
Country
Flag of USUS
Related business
Manufacturer
SpaceX/Seattle
Mission
Decayed Commercial Communications
Bus & Motor
STARLINK V2M, Unknown motor
Mass
730 kg wet, ~700 kg dry
Launch date (UTC)
2023-07-10 (3 years ago)
Launch vehicle
FALCON 9
Launch site
Air Force Eastern Test Range (AFETR)
Object type
Payload
Rocket body
Debris
Shape & HBR
Box + 2 Pan, 17.7 m
Radar Cross Section
33.884 m², Large (>1 m²)

Expand to show TLE details & history
Last TLE update: 11 months ago

TLE from 11 months ago
0 STARLINK-30194
1 57308U 23096U   25244.10510493  .10497201  87591-5  59210-2 0  9991
2 57308  42.9671 113.5131 0023838 256.3108 103.5122 16.17498791118881
Epoch: 2025-09-01T02:31Z
TLE epoch observation values (Epoch: 2025-09-01T02:31:21.065Z)
Latitude
-0.00003°
Longitude
95.15982°
Altitude
229.828 km
Speed
7.769 km/s
True Right ascension
07h 34m 03s
True Declination
0° 00' 00"
Sunlit
Object was in daylight at epoch
Visualization orbit readout
Latitude
Unknown
Longitude
Unknown
Altitude
Unknown
Speed
Unknown
Apparent Right ascension
Unknown
Apparent Declination
Unknown
Sunlit
N/A
Visualization observer readout
Local Sidereal Time
16:05:33
Azimuth
Unknown
Elevation
Unknown
Doppler factor
Unknown
Orbital elements
Apogee altitude
244.126 km
Perigee altitude
212.629 km
Semi-major axis
6,606.515 km
Eccentricity
0.00238
Inclination
42.9671°
RAAN
113.5131°
Arg. of periapsis
256.3108°
True anomaly
103.77762°
Mean anomaly
103.5122°
Eccentric anomaly
103.64493°
Mean motion
4.04189 °/min
Orbital period
89.07 mins
BSTAR
0.005921
Loading maneuver chart data...
Computing Atmospheric mass density...

Documentation

Showing up to 5 results
|